Flag for Germany Weather past 2 weeks in Heidenheim an der Brenz, Baden-Württemberg, Germany

Now
52 °F

Overcast.


Feels Like: 52 °F
Forecast: 48 / 67 °F
Wind: 3 mph from Northwest

Location: Stoetten

Current Time: May 28, 2015 at 10:42:41 AM

Latest Report: May 28, 2015 at 10:00 AM


Visibility: 19 mi

Pressure: 30.10 "Hg

Humidity: 65%

Dew point: 41 °F

Location of Heidenheim an der BrenzLocation

Historic Weather in Heidenheim an der Brenz — Graph

°F

Heidenheim an der Brenz temperature yesterday

Maximum temperature yesterday: 51 °F (at 7:00 PM)
Minimum temperature yesterday: 40 °F (at 6:00 AM)
Average temperature yesterday: 45 °F

Past Weeks' High & Low Weather Summary

 TemperatureHumidityPressure
High68 °F (May 13, 7:00 PM)100% (May 14, 3:00 AM)30.35 "Hg (May 14, 3:00 AM)
Low40 °F (May 20, 1:00 PM)38% (May 22, 5:00 PM)29.70 "Hg (May 18, 8:00 PM)
Average51 °F77%30.05 "Hg
* Reported May 13 9:00 AM — May 28 9:00 AM, Heidenheim an der Brenz, Weather by CustomWeather, © 2015

Note: Actual official high and low records may vary slightly from our data, if they occured in-between our weather recording intervals... More about our weather records

Advertising

Heidenheim an der Brenz weather history for previous 24 hours

 ConditionsComfort  
Time TempWeatherWind HumidityBarometerVisibility
9:00 AM
Thu, May 28
50 °FOvercast.2 mph73%30.11 "Hg17 mi
8:00 AM47 °FOvercast.3 mph76%30.12 "Hg16 mi
7:00 AM45 °FPartly sunny.3 mph76%30.13 "Hg16 mi
6:00 AM44 °FPartly sunny.3 mph81%30.14 "Hg16 mi
5:00 AM43 °FClear.3 mph82%30.14 "Hg7 mi
4:00 AM43 °FClear.2 mph84%30.16 "Hg8 mi
3:00 AM43 °FPassing clouds.2 mph84%30.17 "Hg9 mi
2:00 AM44 °FClear.2 mph84%30.18 "Hg9 mi
1:00 AM44 °FOvercast.2 mph83%30.20 "Hg9 mi
12:00 AM43 °FClear.1 mph88%30.22 "Hg7 mi
11:00 PM
Wed, May 27
42 °FClear.2 mph88%30.22 "Hg9 mi
10:00 PM44 °FClear.2 mph82%30.23 "Hg11 mi
9:00 PM47 °FPassing clouds.3 mph74%30.21 "Hg43 mi
8:00 PM48 °FScattered clouds.3 mph74%30.20 "Hg34 mi
7:00 PM51 °FScattered clouds.3 mph64%30.19 "Hg40 mi
6:00 PM50 °FPartly sunny.5 mph59%30.20 "Hg40 mi
5:00 PM50 °FOvercast.3 mph65%30.21 "Hg37 mi
4:00 PM49 °FOvercast.5 mph71%30.22 "Hg34 mi
3:00 PM50 °FOvercast.5 mph67%30.22 "Hg34 mi
2:00 PM51 °FOvercast.6 mph66%30.22 "Hg31 mi
1:00 PM46 °FOvercast.5 mph77%30.25 "Hg43 mi
12:00 PM46 °FOvercast.3 mph78%30.26 "Hg40 mi
11:00 AM45 °FOvercast.3 mph74%30.26 "Hg37 mi
10:00 AM45 °FOvercast.2 mph73%30.26 "Hg37 mi
Weather by CustomWeather, © 2015

See weather overviewHow to use our weather pages